Wind_Speed
17 16 16 17 18 22 23 22 22 22 22 21 20 19 17 16 16 20 24 27 32 33 34 36 38 40 43 41 42 44 39 30 9 13 29 32 34 39 39 37 33 33 29
14 13 14 16 19 20 23 23 23 23 23 23 23 21 19 16 16 20 22 23 29 34 36 36 38 37 40 41 40 43 40 42 28 11 26 30 31 40 41 40 38 35 31
16 17 16 16 16 18 20 20 22 24 24 23 23 22 22 22 19 18 21 22 27 32 35 37 38 38 40 38 38 40 42 41 41 24 15 28 27 38 39 37 38 37 32
19 22 24 24 24 24 25 25 26 25 24 24 26 26 25 23 20 21 22 22 25 31 34 35 37 39 40 37 39 41 37 36 35 34 24 24 28 34 38 33 31 36 37
19 23 27 28 29 30 32 32 32 31 30 29 29 29 30 29 27 23 24 24 26 28 30 33 37 39 40 40 38 35 34 34 31 29 24 16 23 21 34 32 30 29 36
22 26 30 31 34 36 35 34 34 35 35 32 33 32 34 33 31 24 25 28 29 31 31 30 31 34 37 40 43 41 38 37 36 32 30 24 29 32 34 31 27 18 10
22 28 30 29 31 33 35 38 39 34 35 35 35 33 32 34 30 30 28 30 32 32 32 32 31 31 31 34 38 44 44 45 46 40 36 37 31 37 37 33 34 30 24
24 26 28 28 30 33 34 35 37 35 36 35 35 35 35 38 32 32 33 33 34 35 35 36 34 34 33 32 31 35 40 43 46 47 44 44 38 37 47 52 50 40 20
23 26 26 27 30 33 33 34 35 34 35 36 37 38 36 40 39 36 34 34 35 37 36 37 37 37 37 33 33 34 37 42 40 45 48 42 40 41 46 37 31 28 9
22 23 25 27 31 32 33 34 35 34 37 37 40 39 40 44 46 45 41 36 36 37 38 36 37 41 40 36 36 36 34 42 32 33 35 40 33 37 45 50 43 35 25
24 28 29 28 28 31 34 34 35 37 38 40 41 44 43 43 47 47 45 41 38 37 37 36 34 34 37 39 41 39 41 35 33 32 34 40 44 42 42 48 46 44 35
26 26 28 30 30 29 31 33 33 33 34 37 38 40 39 39 40 43 43 44 44 42 41 38 36 34 33 34 35 42 44 38 31 30 29 32 36 39 42 40 36 37 35
29 28 28 28 27 27 29 30 30 28 29 30 30 32 34 33 36 39 41 42 43 45 43 41 39 37 35 35 37 39 39 37 33 29 31 33 34 34 32 31 31 33 28
29 28 28 28 29 27 27 27 28 28 28 28 29 31 34 35 35 34 35 35 39 35 32 40 35 32 32 35 35 35 38 35 34 34 29 29 27 28 31 31 29 32 26
27 27 27 26 28 30 29 28 29 31 31 34 34 35 33 32 32 39 41 37 33 38 39 35 27 28 26 27 31 32 33 32 32 33 29 27 28 29 30 31 28 29 28
26 26 27 30 29 29 30 31 31 34 36 39 41 43 42 44 47 45 44 43 41 41 40 35 29 25 23 22 22 24 27 29 30 30 28 28 29 29 27 24 26 28 23
26 29 30 29 28 28 28 30 29 34 36 38 38 39 40 42 41 41 40 39 38 37 35 30 28 26 26 19 20 21 22 28 28 27 29 29 28 28 29 26 25 25 23
27 29 29 28 27 28 29 30 32 31 29 34 38 37 39 38 37 36 34 32 27 28 28 26 26 26 28 22 19 22 22 21 25 24 27 27 31 31 30 27 28 26 23
28 26 26 27 28 29 29 29 30 30 31 33 36 37 37 33 33 33 32 27 23 22 24 26 31 30 31 22 23 25 25 22 24 25 26 29 31 32 29 27 25 24 23
26 25 24 24 26 26 26 28 28 28 29 28 28 28 34 29 25 27 25 23 19 20 20 24 25 18 21 21 24 23 22 23 24 24 24 25 25 27 25 25 25 24 21
25 24 24 22 24 25 26 26 28 27 26 26 27 28 32 26 22 22 20 21 22 26 23 22 20 20 19 23 23 22 20 20 21 22 23 24 26 23 23 24 25 23 23
25 22 22 22 23 24 26 26 25 25 25 25 27 27 27 22 22 23 23 23 25 26 23 14 9 6 10 18 20 21 21 21 22 24 23 25 25 25 26 25 25 23 22
23 24 21 21 21 23 24 24 24 24 24 24 24 24 25 23 23 23 24 25 25 24 22 18 16 16 13 13 15 20 23 22 24 28 27 27 27 26 26 25 25 24 22
20 22 20 20 20 21 21 23 23 23 23 23 24 24 24 24 23 24 25 25 25 25 21 19 17 14 12 11 10 12 16 20 23 26 29 28 26 26 25 24 23 21 21
18 20 20 20 20 20 21 21 22 22 23 23 24 25 25 25 25 26 27 25 27 27 26 23 20 18 15 12 11 11 13 17 20 24 26 27 27 26 25 24 23 21 20
16 18 19 19 20 20 19 20 21 22 22 23 24 24 25 26 26 26 27 28 28 28 27 26 24 24 21 17 14 14 15 17 22 22 25 28 27 25 24 24 23 20 19
Wind_Direction
23 28 29 24 19 21 20 11 9 8 5 3 357 348 334 317 295 282 275 265 259 256 251 248 247 245 242 239 235 235 229 220 191 198 217 217 209 213 216 221 217 218 219
13 8 17 11 8 6 3 358 357 357 358 355 354 352 344 334 318 299 285 275 265 260 258 254 249 246 245 242 240 236 230 228 219 176 192 196 207 213 217 214 213 218 220
356 354 353 353 352 344 340 340 340 343 342 343 340 341 342 339 330 310 292 283 275 268 265 262 258 251 246 240 236 232 231 230 226 216 183 194 200 207 208 214 215 219 223
341 342 338 339 335 333 328 328 328 331 329 327 327 325 327 326 324 319 310 297 283 275 269 264 261 257 248 242 238 235 229 226 223 223 201 190 198 199 204 195 204 217 221
323 330 331 330 329 329 328 326 322 323 323 318 315 314 314 315 313 310 306 299 292 287 280 271 265 262 258 250 241 236 228 222 219 217 218 193 190 175 191 196 201 203 216
307 314 318 320 322 321 320 318 316 316 316 313 308 306 306 304 305 297 290 290 289 286 281 275 269 264 260 257 251 244 235 222 222 219 217 217 205 198 192 192 188 190 210
290 299 306 308 307 307 309 310 308 307 308 307 305 301 294 293 290 290 285 283 281 278 276 275 272 266 260 257 254 249 244 239 232 226 223 222 214 200 190 190 197 202 211
296 297 298 299 300 301 299 295 295 299 300 298 295 292 292 288 284 281 281 279 276 273 272 271 266 265 260 254 247 248 244 241 238 231 230 232 229 217 209 207 204 201 208
302 303 304 303 300 299 296 293 291 292 289 290 290 290 287 285 286 284 282 278 274 270 267 265 264 263 262 253 246 243 245 243 239 238 237 238 233 231 213 198 189 178 184
307 308 305 303 301 300 297 295 294 292 288 286 285 283 283 283 284 284 283 278 272 267 266 263 258 257 260 252 243 241 240 243 236 233 235 234 235 231 217 207 194 193 193
306 304 304 304 302 299 297 294 293 291 288 285 283 282 281 279 281 283 283 279 271 269 264 262 257 253 250 249 243 239 238 239 237 232 228 227 228 226 213 207 211 205 196
311 308 306 305 303 299 295 294 292 290 287 285 285 284 282 282 280 283 283 280 276 269 263 259 257 255 253 253 250 246 243 240 231 228 221 215 214 216 214 208 208 204 211
314 311 308 305 302 299 296 295 294 292 287 287 287 287 289 290 289 288 289 286 282 278 273 262 258 259 261 260 256 251 242 234 222 221 223 220 216 217 205 197 193 197 201
311 309 309 307 304 301 296 293 292 291 288 287 287 284 283 282 282 283 284 285 287 291 294 265 261 259 260 258 255 249 240 226 219 219 222 220 211 205 199 191 185 178 174
310 308 308 307 306 302 296 293 291 287 286 286 284 284 286 286 285 285 282 278 272 278 285 283 263 248 247 253 250 246 228 221 217 219 217 202 195 193 195 193 189 187 183
307 309 309 306 302 300 299 297 294 294 296 294 293 292 292 289 292 291 288 284 279 274 271 269 270 268 243 242 249 241 216 215 216 216 207 195 193 191 183 183 182 182 186
303 306 304 302 300 300 300 298 298 299 299 297 297 296 294 294 295 293 289 285 280 272 264 265 261 259 262 243 248 224 212 216 218 209 199 195 185 174 170 173 175 183 183
308 302 300 299 300 300 299 299 299 299 301 302 302 301 299 298 300 298 295 290 279 269 269 269 256 258 258 239 226 219 220 216 211 202 193 177 174 170 173 178 182 185 180
307 302 301 302 302 302 303 303 302 302 300 300 301 303 304 302 301 298 298 288 274 257 252 256 255 248 250 214 220 222 219 201 188 178 175 175 178 174 178 178 180 182 176
308 305 310 312 310 310 311 309 309 310 309 312 315 314 322 312 301 295 296 285 272 261 254 249 268 251 212 211 216 211 195 182 178 178 172 170 171 172 168 163 165 165 168
314 315 319 320 317 317 317 318 317 317 319 320 319 324 331 343 329 328 333 335 331 327 269 246 253 226 226 213 191 185 175 169 166 164 159 159 159 155 157 158 159 159 151
327 321 322 321 322 323 323 323 324 327 327 327 329 332 343 348 347 346 345 346 351 358 19 61 92 146 177 177 168 153 145 146 149 148 146 145 145 146 148 148 148 147 148
339 333 330 329 329 329 331 332 333 337 337 337 338 340 349 354 356 357 355 356 7 21 30 42 58 73 95 125 142 153 151 149 153 153 144 144 144 146 149 147 147 147 147
339 342 337 339 335 336 336 335 338 344 348 350 352 353 356 359 4 7 8 9 16 28 41 52 60 69 83 100 124 148 162 165 167 160 155 147 144 144 142 141 142 142 142
348 351 356 352 344 345 343 344 346 349 354 359 360 2 3 5 10 16 20 24 31 38 43 50 56 63 70 82 99 120 138 155 158 159 153 145 139 138 134 132 134 135 139
356 360 5 6 4 355 350 347 350 356 358 360 2 7 9 11 13 18 26 36 40 47 52 57 61 67 67 74 89 116 132 144 146 152 152 147 140 136 140 140 144 143 151
Height
807 800 796 798 799 791 787 789 785 783 782 780 776 773 771 769 767 767 766 765 764 765 765 764 764 767 767 766 767 768 770 769 771 776 780 782 784 787 791 797 800 802 806
806 806 796 795 792 791 790 791 789 782 780 778 775 771 771 766 764 765 762 758 758 758 759 758 756 758 758 760 761 760 761 764 766 767 767 773 776 777 780 787 792 796 799
800 801 799 794 791 793 791 791 790 783 779 775 776 772 767 764 760 760 760 752 752 753 751 750 749 749 749 750 752 751 754 756 758 759 759 762 767 771 774 779 785 790 794
799 797 797 791 791 790 788 785 785 781 777 774 772 768 764 762 760 758 752 747 746 745 744 741 741 741 740 741 743 743 745 747 750 752 752 753 756 761 765 768 776 779 784
800 798 795 791 789 785 782 779 778 774 771 768 766 763 760 756 754 751 750 744 740 737 735 734 733 731 732 732 735 735 737 738 739 741 745 745 746 753 752 756 762 768 771
798 796 794 790 783 781 780 778 773 769 766 762 759 757 751 749 745 744 744 739 733 730 726 724 722 721 721 724 723 726 727 729 726 728 730 732 732 736 742 747 753 763 768
797 794 790 786 783 781 778 772 767 763 760 755 750 747 742 738 737 737 735 731 725 721 717 714 712 710 709 710 714 716 716 718 716 718 716 715 726 723 729 736 739 743 743
791 787 784 781 778 774 770 766 761 757 751 747 743 739 734 729 728 727 725 721 715 710 707 704 702 699 699 701 702 704 703 703 704 708 704 704 711 717 716 715 720 730 739
786 782 779 776 772 768 763 758 754 751 746 741 736 729 726 718 717 717 716 711 704 698 695 692 690 688 687 689 692 691 690 686 688 692 695 700 702 706 710 716 718 726 732
781 778 775 771 768 763 759 753 748 744 737 732 724 720 715 709 704 704 705 702 693 687 682 679 677 676 675 677 678 677 677 672 679 681 683 686 692 693 696 697 700 706 714
776 773 769 765 761 757 751 747 742 736 730 722 716 708 704 700 691 690 689 689 683 676 670 665 663 662 662 663 664 664 660 665 668 670 671 674 677 679 684 684 687 692 696
769 765 761 758 754 749 744 738 733 728 721 714 707 697 692 688 683 678 676 674 671 665 655 652 650 650 650 650 651 650 651 656 658 660 661 659 662 666 669 674 677 683 687
762 758 755 750 746 742 736 730 725 720 714 706 699 690 682 680 675 671 666 662 658 652 644 638 637 638 638 638 637 638 641 644 644 647 648 649 652 660 664 667 671 675 680
757 752 748 743 738 734 729 724 718 713 706 700 693 684 676 670 666 663 658 655 649 639 631 626 624 625 625 625 625 626 627 628 630 631 634 641 649 654 656 659 663 666 675
753 747 742 737 732 726 722 717 711 704 699 690 681 673 664 656 654 650 644 640 637 633 628 619 613 612 612 612 612 612 612 615 618 621 625 630 637 643 648 653 656 664 666
747 742 737 732 726 721 714 706 703 695 688 680 672 664 654 647 640 635 630 625 623 622 617 610 606 605 601 600 600 600 601 604 606 612 615 620 626 632 639 647 652 657 662
744 738 733 727 721 715 708 700 689 682 677 669 662 654 646 637 630 623 617 613 610 608 603 599 595 595 594 591 592 591 592 595 599 601 606 611 616 623 631 639 647 653 659
739 734 728 722 716 709 702 694 686 676 665 656 648 644 635 627 619 612 605 601 597 595 593 589 586 586 585 582 583 585 586 589 591 594 598 602 609 615 624 632 641 647 652
733 728 723 716 710 703 696 688 680 671 662 651 640 630 623 617 610 603 597 591 585 582 580 579 575 573 574 571 573 576 578 579 583 587 591 596 603 608 617 624 634 643 649
728 722 718 712 705 698 691 684 675 666 657 647 638 630 619 609 602 594 588 582 576 572 568 566 563 560 560 561 565 568 571 574 578 583 588 594 601 607 613 620 629 638 645
724 718 712 707 701 695 688 681 673 664 656 647 639 630 620 612 604 596 589 583 576 567 556 555 555 554 555 556 558 561 565 571 576 581 586 593 599 606 613 620 628 636 642
721 715 710 705 699 693 687 679 672 664 657 648 639 630 622 614 607 600 592 585 577 569 558 552 553 554 555 555 557 561 565 571 576 581 587 593 598 606 613 620 628 634 641
719 714 707 702 697 692 685 679 672 665 657 650 642 633 624 617 610 604 597 590 583 575 570 566 563 562 562 562 563 565 568 573 578 582 588 594 600 608 615 620 626 634 641
718 713 707 701 697 692 686 680 674 667 660 652 645 638 630 623 616 610 604 598 591 585 580 576 574 572 571 572 572 574 577 580 584 589 592 597 604 610 615 622 628 635 641
715 710 705 701 697 692 687 682 676 669 662 656 649 643 637 631 624 617 611 606 601 595 591 587 584 582 581 581 581 582 584 586 590 595 598 602 606 612 617 623 630 636 643
712 709 705 701 697 693 689 684 678 672 666 660 655 649 644 638 633 627 621 616 611 607 603 599 596 594 592 592 592 592 592 594 595 600 604 607 611 617 623 628 634 640 646